{"data":{"norad_id":68159,"epoch":"2026-05-25T00:19:20.210304Z","epoch_age_seconds":73761,"freshness":"FRESH","line1":"1 68159U 26049T   26145.01342836  .00016899  00000+0  52445-3 0  9990","line2":"2 68159  97.2838 166.6671 0001827  79.0032 281.1416 15.33453014 11341","mean_motion":15.33453014,"eccentricity":0.0001827,"inclination_deg":97.2838,"raan_deg":166.6671,"arg_perigee_deg":79.0032,"mean_anomaly_deg":281.1416,"bstar":0.00052445,"rev_number":1134,"period_min":93.90571389232,"perigee_km":464.26899454471,"apogee_km":466.7696665679,"semimajor_km":6843.6563305563,"source":"CELESTRAK","updated_at":"2026-05-25T13:38:21.850106Z"}}